FLOCK 2K-18 (42887 NORAD) Tracking and Keplerian Element Data

This shows tracking and keplerian element data for the satellite.

Feedback or suggestion? Click here.




ElementValue
Catalog42887
NameFLOCK 2K-18
Epoch Orbit14493
Epoch Day44.89653921
Epoch Year2020
RAAN279.7842
Inclination96.9109
Eccentricity0.0012881
Argument of Perigee59.3575
Mean Anonmoly300.8941
Mean Motion15.40493266
Decay Rate1.906E-05
L11 42887U 17042BQ 20044.89653921 .00001906 00000-0 48775-4 0 9997
L22 42887 96.9109 279.7842 0012881 59.3575 300.8941 15.40493266144934

Live tracking and technical data element details for FLOCK 2K-18 (NORAD 42887). FLOCK 2K-18 can be tracked NOW for your location showing map with azimuth and elevation plus other details from your city location.

Track the satellite on the map from your city or location and see movement details for azimuth, elevation, latitude, longitude, range, height, and movement on the map or in text.







IsCatalogInMostPopularTable: catalog: 42887, numindb: 341
Update: records affected: 1



GetName: 42887 FLOCK 2K-18

Hit Count: updated at: Mon, 17 Feb 2020 05:03:56 GMT